Hourly Data Report for March 21, 2004

TORONTO CITY
ONTARIO

43°40'00.000" N
79°24'00.000" W
112.50 m
6158355
71508
XTO

Download Data

Hourly Data (March 2004)
Hourly Data Report for March 21, 2004
TIME
LST
Temp Definition
°C
Dew Point Definition
°C
Rel Hum Definition
%
Precip. Amount Definition
mm

Wind Dir Definition
10's deg

Wind Spd Definition
km/h
Visibility Definition
km
Stn Press Definition
kPa
Hmdx Definition


Wind Chill Definition


Weather Definition


00:00 2.7 -2.1 71   LegendMM LegendMM LegendMM 99.46     LegendNANA
01:00 2.5 -2.1 72   LegendMM LegendMM LegendMM 99.44     LegendNANA
02:00 2.3 -1.9 74   LegendMM LegendMM LegendMM 99.42     LegendNANA
03:00 1.9 -1.8 76   LegendMM LegendMM LegendMM 99.44     LegendNANA
04:00 0.8 -1.7 83   LegendMM LegendMM LegendMM 99.49     LegendNANA
05:00 0.1 -3.0 80   LegendMM LegendMM LegendMM 99.57     LegendNANA
06:00 -0.9 -4.7 75   LegendMM LegendMM LegendMM 99.67     LegendNANA
07:00 -2.3 -6.6 72   LegendMM LegendMM LegendMM 99.77     LegendNANA
08:00 -2.8 -7.6 69   LegendMM LegendMM LegendMM 99.91     LegendNANA
09:00 -3.0 -7.6 71   LegendMM LegendMM LegendMM 100.05     LegendNANA
10:00 -3.7 -8.1 71   LegendMM LegendMM LegendMM 100.18     LegendNANA
11:00 -2.9 -8.8 64   LegendMM LegendMM LegendMM 100.26     LegendNANA
12:00 -2.6 -8.6 63   LegendMM LegendMM LegendMM 100.32     LegendNANA
13:00 -3.3 -10.5 57   LegendMM LegendMM LegendMM 100.37     LegendNANA
14:00 -3.0 -10.0 58   LegendMM LegendMM LegendMM 100.42     LegendNANA
15:00 -2.7 -9.3 60   LegendMM LegendMM LegendMM 100.48     LegendNANA
16:00 -3.2 -9.9 60   LegendMM LegendMM LegendMM 100.50     LegendNANA
17:00 -3.5 -10.2 60   LegendMM LegendMM LegendMM 100.57     LegendNANA
18:00 -3.9 -11.7 55   LegendMM LegendMM LegendMM 100.61     LegendNANA
19:00 -4.1 -14.1 46   LegendMM LegendMM LegendMM 100.71     LegendNANA
20:00 -4.3 -14.3 46   LegendMM LegendMM LegendMM 100.76     LegendNANA
21:00 -4.3 -14.8 44   LegendMM LegendMM LegendMM 100.78     LegendNANA
22:00 -4.7 -16.6 39   LegendMM LegendMM LegendMM 100.85     LegendNANA
23:00 -5.1 -17.0 39   LegendMM LegendMM LegendMM 100.88     LegendNANA

Notes on Data Quality.

Legend

  • E = Estimated
  • M = Missing
  • NA = Not Available*
  • [empty] = Indicates an unobserved value
Date modified: